Location: Kerb�bon
(47.7970°N, 3.3487°W)
Time: 09:40:25
(UTC+00:00)

Cosmos 2084 Rocket - Pass Details

Date: 12 May 2021
Orbit: 521 x 658 km, 62.8° (Epoch: 16 June)

Event Time Altitude Azimuth Distance (km) Brightness Sun altitude
Rises 21:58:28 0° 321° (NW) 2,760 8.6 -17.6°
Reaches altitude 10° 22:00:44 10° 328° (NNW) 1,883 7.3 -17.8°
Maximum altitude 22:04:49 44° 41° (NE) 820 4.3 -18.2°
Enters shadow 22:06:50 26° 98° (E) 1,182 4.6 -18.3°
